Regional Weather Roundup
Issued by NWS Columbia, SC

Home | Current Version | Previous Version | Text Only | Print | Product List | Glossary On
Versions: 1 2 3 4 5 6 7 8 9 10 11 12 13 14 15 16 17 18 19 20 21 22 23 24 25 26 27 28 29 30 31 32 33 34 35 36 37 38 39 40 41 42 43 44 45 46 47 48 49 50
186
ASUS42 KCAE 270910
RWRCAE
REGIONAL WEATHER ROUNDUP
NATIONAL WEATHER SERVICE COLUMBIA SC
500 AM EDT MON MAR 27 2017

NOTE: "FAIR" INDICATES FEW OR NO CLOUDS BELOW 12,000 FEET WITH NO
SIGNIFICANT WEATHER AND/OR OBSTRUCTIONS TO VISIBILITY.

NOT ALL STATIONS ARE QUALITY CONTROLLED BY THE NATIONAL
WEATHER SERVICE. USE DATA WITH CAUTION...ESPECIALLY
DEWPOINT OBSERVATIONS.

SCZ001>056-GAZ040-063>065-077-271000-
...UPSTATE SOUTH CAROLINA...

CITY           SKY/WX    TMP DP  RH WIND       PRES   REMARKS
ANDERSON       PTCLDY    60  56  86 CALM      30.07R
LIBERTY        CLOUDY    53  53  98 SE3       30.07S
SPARTANBURG    CLOUDY    55  54  94 CALM      30.08R
CLEMSON        PTCLDY    61  57  87 CALM      30.08S
GREENVILLE     MOCLDY    61  57  87 CALM      30.09R
GREENWOOD      CLOUDY    61  55  81 S9        30.08S
GREER          MOCLDY    58  55  90 CALM      30.07S
ROCK HILL      PTCLDY    57  55  93 CALM      30.09S
CHESTER        SUNNY     54  54 100 CALM      30.10R FOG
LAURENS        CLOUDY    61  55  82 S8        30.07S


...CENTRAL SOUTH CAROLINA...

CITY           SKY/WX    TMP DP  RH WIND       PRES   REMARKS
COLUMBIA APT   CLEAR     62  57  83 SE3       30.08S
COLUMBIA OWENS CLEAR     61  58  90 CALM      30.10S
MCENTIRE ANGB  CLEAR     56  56 100 CALM      30.09F
ORANGEBURG     PTCLDY    59  58  96 S3        30.09F
SUMTER SHAW    MOCLDY    57  55  93 CALM      30.07F
NEWBERRY       MOSUNNY   61  57  88 S7        30.11S
AIKEN          FAIR      57  55  94 S5        30.11F
BARNWELL       FAIR      61  61 100 CALM      30.09S
MANNING        FAIR      55  54  94 S3        30.10F
CAMDEN         CLOUDY    61  57  88 CALM      30.10S
LANCASTER      PTSUNNY   61  61 100 S7        30.09S
WINNSBORO      SUNNY     59  57  94 S6        30.08S


...EASTERN AND COASTAL SOUTH CAROLINA...

CITY           SKY/WX    TMP DP  RH WIND       PRES   REMARKS
MYRTLE BEACH   CLEAR     59  55  87 CALM      30.12F
N MYRTLE BCH   CLEAR     60  57  89 CALM      30.11S
CONWAY           N/A    N/A N/A N/A MISG        N/A
MARION         FAIR      54  52  94 CALM      30.11F
HARTSVILLE     PTSUNNY   55  54  94 CALM      30.09F
FLORENCE       CLEAR     57  57 100 S6        30.10F
DARLINGTON     CLEAR     58  56  93 S7        30.10F
CHARLESTON APT CLEAR     60  55  83 CALM      30.10F
MOUNT PLEASANT FAIR      55  55 100 CALM      30.10F
WALTERBORO     FOG       54  54 100 CALM      30.11S VSB 1/4
BEAUFORT       CLEAR     59  58  96 CALM      30.09F


...EASTERN GEORGIA...

CITY           SKY/WX    TMP DP  RH WIND       PRES   REMARKS
AUGUSTA BUSH F CLEAR     61  58  90 CALM      30.08S
AUGUSTA DANIEL CLEAR     61  56  83 SE5       30.08S
THOMSON        MOCLDY    61  57  87 SW6       30.12S
WASHINGTON     FAIR      63  59  88 S5        30.07R
CLAXTON        FAIR     N/A N/A N/A CALM      30.10S
SYLVANIA       MOSUNNY  N/A N/A N/A CALM      30.10S FOG
STATESBORO     MOCLDY    61  32  33 S6        30.09S
SAVANNAH       CLEAR     61  56  83 CALM      30.09F


...SOUTHERN NORTH CAROLINA...

CITY           SKY/WX    TMP DP  RH WIND       PRES   REMARKS
CHARLOTTE      MOCLDY    61  56  83 S6        30.10R
MONROE         CLOUDY    61  56  83 SW6       30.08S
WADESBORO      CLOUDY    61  55  82 CALM      30.10R
ROCKINGHAM     SUNNY     59  58  97 S6        30.09S
RUTHERFORDTON  CLOUDY    60  60 100 SE8       30.09S
ASHEVILLE      PTCLDY    56  53  90 S6        30.09S

$$




USA.gov is the U.S. government's official web portal to all federal, state and local government web resources and services.